Flag for U.S.A. Weather past 2 weeks in Detroit, Michigan, U.S.A.

Now
44 °F

Sunny.


Feels Like: 39 °F
Forecast: 36 / 55 °F
Wind: 9 mph from Northeast

Location: Detroit City Airport


UV Index: 5 (Moderate)

Visibility: 10 mi


Pressure: 30.48 "Hg

Humidity: 60%

Dew point: 31 °F

Location of DetroitLocation

Historic Weather in Detroit

°F

Detroit temperature yesterday

Maximum temperature yesterday: 58 °F (at 1:00 PM)
Minimum temperature yesterday: 41 °F (at 11:53 PM)
Average temperature yesterday: 51 °F

Past Weeks' High & Low Weather Summary

 TemperatureHumidityPressure
High79 °F (Apr 13, 3:53 PM)93% (Apr 4, 9:53 AM)30.49 "Hg (Apr 4, 9:53 AM)
Low24 °F (Apr 16, 4:53 AM)21% (Apr 6, 3:53 PM)29.44 "Hg (Apr 4, 1:53 PM)
Average49 °F54%29.97 "Hg
* Reported Apr 4 9:53 AM — Apr 19 9:53 AM, Detroit, Weather by CustomWeather, © 2014

Note: Actual official high and low records may vary slightly from our data, if they occured in-between our weather recording intervals... More about our weather records

Advertising

Historic Weather Conditions — Data for Previous 24 hours

 ConditionsComfort  
Time TempWeatherWind HumidityBarometerVisibility
9:53 AM
Apr 19
44 °FSunny.9 mph60%30.48 "Hg10 mi
8:53 AM40 °FSunny.9 mph65%30.48 "Hg10 mi
7:53 AM37 °FSunny.10 mph70%30.46 "Hg10 mi
6:53 AM34 °FClear.5 mph76%30.45 "Hg10 mi
5:53 AM35 °FClear.5 mph75%30.42 "Hg10 mi
4:53 AM36 °FClear.7 mph70%30.40 "Hg10 mi
3:53 AM37 °FClear.10 mph67%30.40 "Hg10 mi
2:53 AM39 °FPassing clouds.9 mph62%30.40 "Hg10 mi
1:53 AM39 °FPassing clouds.10 mph65%30.40 "Hg10 mi
12:53 AM40 °FPassing clouds.8 mph65%30.39 "Hg10 mi
11:53 PM
Apr 18
41 °FPassing clouds.10 mph65%30.37 "Hg10 mi
10:53 PM42 °FPassing clouds.14 mph62%30.35 "Hg10 mi
9:53 PM47 °FPartly cloudy.10 mph61%30.32 "Hg10 mi
8:53 PM50 °FOvercast.8 mph59%30.28 "Hg10 mi
7:53 PM52 °FPassing clouds.8 mph59%30.25 "Hg10 mi
6:53 PM53 °FSunny.10 mph56%30.25 "Hg10 mi
5:53 PM55 °FSunny.9 mph55%30.26 "Hg10 mi
4:53 PM56 °FSunny.9 mph55%30.26 "Hg10 mi
3:53 PM58 °FPartly sunny.10 mph58%30.27 "Hg9 mi
2:53 PM54 °FBroken clouds.8 mph67%30.29 "Hg8 mi
1:53 PM54 °FMostly cloudy.14 mph69%30.29 "Hg9 mi
1:00 PM58 °FMostly cloudy.6 mph54%30.27 "Hg10 mi
11:53 AM56 °FMostly cloudy.3 mph60%30.27 "Hg10 mi
Weather by CustomWeather, © 2014

See weather overview